Hourly Weather Barstow

Today, 19 April, Monday

Time Temperature Precipitation Wind Pressure Humidity
00:00 +18°C° 0 mm 1 mps 703 mmHg 7%
01:00 +17°C° 0 mm 2 mps 703 mmHg 7%
02:00 +16°C° 0 mm 2 mps 703 mmHg 10%
03:00 +16°C° 0 mm 2 mps 703 mmHg 12%
04:00 +15°C° 0 mm 2 mps 703 mmHg 15%
05:00 +17°C° 0 mm 2 mps 703 mmHg 16%
06:00 +18°C° 0 mm 2 mps 704 mmHg 18%
07:00 +19°C° 0 mm 2 mps 704 mmHg 20%
08:00 +21°C° 0 mm 2 mps 704 mmHg 17%
09:00 +24°C° 0 mm 3 mps 704 mmHg 15%
10:00 +26°C° 0 mm 3 mps 704 mmHg 13%
11:00 +27°C° 0 mm 3 mps 704 mmHg 11%
12:00 +29°C° 0 mm 4 mps 703 mmHg 9%
13:00 +30°C° 0 mm 4 mps 703 mmHg 6%
14:00 +30°C° 0 mm 5 mps 702 mmHg 6%
15:00 +32°C° 0 mm 7 mps 701 mmHg 6%
16:00 +32°C° 0 mm 8 mps 701 mmHg 6%
17:00 +29°C° 0 mm 8 mps 701 mmHg 8%
18:00 +27°C° 0 mm 8 mps 701 mmHg 11%
19:00 +26°C° 0 mm 8 mps 701 mmHg 13%
20:00 +24°C° 0 mm 8 mps 700 mmHg 14%
21:00 +23°C° 0 mm 7 mps 700 mmHg 16%
22:00 +21°C° 0 mm 7 mps 700 mmHg 18%
23:00 +21°C° 0 mm 7 mps 700 mmHg 18%

Tomorrow, 20 April, Tuesday

Time Temperature Precipitation Wind Pressure Humidity
00:00 +20°C° 0 mm 6 mps 700 mmHg 18%
01:00 +20°C° 0 mm 6 mps 699 mmHg 19%
02:00 +19°C° 0 mm 5 mps 699 mmHg 20%
03:00 +17°C° 0 mm 5 mps 699 mmHg 21%
04:00 +18°C° 0 mm 4 mps 698 mmHg 22%
05:00 +18°C° 0 mm 4 mps 699 mmHg 22%
06:00 +19°C° 0 mm 4 mps 699 mmHg 21%
07:00 +20°C° 0 mm 4 mps 699 mmHg 20%
08:00 +23°C° 0 mm 6 mps 699 mmHg 17%
09:00 +26°C° 0 mm 7 mps 699 mmHg 13%
10:00 +28°C° 0 mm 9 mps 699 mmHg 10%
11:00 +29°C° 0 mm 9 mps 698 mmHg 9%
12:00 +31°C° 0 mm 9 mps 698 mmHg 9%
13:00 +32°C° 0 mm 10 mps 697 mmHg 8%
14:00 +31°C° 0 mm 10 mps 697 mmHg 10%
15:00 +29°C° 0 mm 11 mps 696 mmHg 12%
16:00 +28°C° 0 mm 12 mps 696 mmHg 14%
17:00 +26°C° 0 mm 11 mps 695 mmHg 17%
18:00 +23°C° 0 mm 10 mps 695 mmHg 21%
19:00 +21°C° 0 mm 10 mps 695 mmHg 25%
20:00 +19°C° 0 mm 9 mps 695 mmHg 29%
21:00 +18°C° 0 mm 9 mps 695 mmHg 34%
22:00 +16°C° 0 mm 9 mps 695 mmHg 38%
23:00 +16°C° 0 mm 9 mps 696 mmHg 42%

Day after tomorrow, 21 April, Wednesday

Time Temperature Precipitation Wind Pressure Humidity
00:00 +15°C° 0 mm 8 mps 696 mmHg 47%
01:00 +13°C° 0 mm 8 mps 696 mmHg 51%
02:00 +12°C° 0 mm 8 mps 695 mmHg 53%
03:00 +12°C° 0 mm 7 mps 695 mmHg 56%
04:00 +11°C° 0 mm 7 mps 695 mmHg 58%
05:00 +12°C° 0 mm 7 mps 696 mmHg 57%
06:00 +14°C° 0 mm 7 mps 696 mmHg 55%
07:00 +14°C° 0 mm 6 mps 697 mmHg 53%
08:00 +16°C° 0 mm 6 mps 697 mmHg 46%
09:00 +19°C° 0 mm 6 mps 698 mmHg 38%
10:00 +21°C° 0 mm 6 mps 698 mmHg 31%
11:00 +23°C° 0 mm 6 mps 698 mmHg 27%
12:00 +24°C° 0 mm 6 mps 697 mmHg 22%
13:00 +26°C° 0 mm 6 mps 697 mmHg 18%
14:00 +26°C° 0 mm 7 mps 697 mmHg 19%
15:00 +26°C° 0 mm 9 mps 696 mmHg 20%
16:00 +26°C° 0 mm 10 mps 696 mmHg 21%
17:00 +23°C° 0 mm 9 mps 696 mmHg 29%
18:00 +21°C° 0 mm 8 mps 696 mmHg 36%
19:00 +18°C° 0 mm 7 mps 697 mmHg 44%
20:00 +17°C° 0 mm 6 mps 697 mmHg 47%
21:00 +16°C° 0 mm 6 mps 697 mmHg 50%
22:00 +15°C° 0 mm 5 mps 697 mmHg 54%
23:00 +14°C° 0 mm 5 mps 697 mmHg 56%

22 April, Thursday

Time Temperature Precipitation Wind Pressure Humidity
00:00 +13°C° 0 mm 4 mps 697 mmHg 59%
01:00 +13°C° 0 mm 4 mps 697 mmHg 62%
02:00 +12°C° 0 mm 3 mps 696 mmHg 64%
03:00 +12°C° 0 mm 3 mps 696 mmHg 67%
04:00 +11°C° 0 mm 3 mps 696 mmHg 69%
05:00 +12°C° 0 mm 3 mps 697 mmHg 67%
06:00 +12°C° 0 mm 4 mps 697 mmHg 65%
07:00 +13°C° 0 mm 4 mps 698 mmHg 62%
08:00 +15°C° 0 mm 4 mps 698 mmHg 55%
09:00 +18°C° 0 mm 4 mps 698 mmHg 48%
10:00 +19°C° 0 mm 5 mps 699 mmHg 41%
11:00 +21°C° 0 mm 5 mps 698 mmHg 37%
12:00 +22°C° 0 mm 4 mps 698 mmHg 33%
13:00 +23°C° 0 mm 4 mps 698 mmHg 29%
14:00 +22°C° 0.3 mm 6 mps 698 mmHg 36%
15:00 +20°C° 0.3 mm 7 mps 697 mmHg 42%
16:00 +18°C° 0.3 mm 8 mps 697 mmHg 48%
17:00 +17°C° 0.3 mm 7 mps 697 mmHg 50%
18:00 +17°C° 0.3 mm 5 mps 698 mmHg 52%
19:00 +17°C° 0.3 mm 4 mps 698 mmHg 53%
20:00 +16°C° 0 mm 3 mps 698 mmHg 56%
21:00 +16°C° 0 mm 3 mps 698 mmHg 59%
22:00 +14°C° 0 mm 3 mps 698 mmHg 62%
23:00 +14°C° 0 mm 3 mps 698 mmHg 63%

23 April, Friday

Time Temperature Precipitation Wind Pressure Humidity
00:00 +14°C° 0 mm 3 mps 698 mmHg 64%
01:00 +13°C° 0 mm 3 mps 698 mmHg 65%
02:00 +13°C° 0 mm 3 mps 698 mmHg 65%
03:00 +13°C° 0 mm 3 mps 698 mmHg 64%
04:00 +12°C° 0 mm 3 mps 699 mmHg 64%
05:00 +13°C° 0 mm 3 mps 699 mmHg 59%
06:00 +14°C° 0 mm 3 mps 699 mmHg 54%
07:00 +16°C° 0 mm 3 mps 700 mmHg 49%
08:00 +18°C° 0 mm 3 mps 700 mmHg 43%
09:00 +20°C° 0 mm 3 mps 700 mmHg 36%
10:00 +22°C° 0 mm 4 mps 701 mmHg 30%
11:00 +25°C° 0 mm 4 mps 701 mmHg 25%
12:00 +27°C° 0 mm 4 mps 700 mmHg 20%
13:00 +29°C° 0 mm 5 mps 700 mmHg 15%
14:00 +29°C° 0 mm 6 mps 700 mmHg 16%
15:00 +29°C° 0 mm 7 mps 699 mmHg 17%
16:00 +29°C° 0 mm 9 mps 699 mmHg 17%
17:00 +27°C° 0 mm 8 mps 699 mmHg 22%
18:00 +24°C° 0 mm 7 mps 699 mmHg 27%
19:00 +22°C° 0 mm 6 mps 699 mmHg 32%
20:00 +21°C° 0 mm 6 mps 699 mmHg 34%
21:00 +20°C° 0 mm 6 mps 700 mmHg 37%
22:00 +19°C° 0 mm 6 mps 700 mmHg 39%
23:00 +17°C° 0 mm 5 mps 700 mmHg 41%

24 April, Saturday

Time Temperature Precipitation Wind Pressure Humidity
00:00 +17°C° 0 mm 5 mps 700 mmHg 43%
01:00 +17°C° 0 mm 4 mps 699 mmHg 44%
02:00 +15°C° 0 mm 4 mps 699 mmHg 47%
03:00 +16°C° 0 mm 3 mps 699 mmHg 49%
04:00 +14°C° 0 mm 3 mps 699 mmHg 51%
05:00 +16°C° 0 mm 3 mps 700 mmHg 48%
06:00 +17°C° 0 mm 3 mps 700 mmHg 44%
07:00 +18°C° 0 mm 3 mps 700 mmHg 41%
08:00 +21°C° 0 mm 4 mps 700 mmHg 34%
09:00 +23°C° 0 mm 5 mps 701 mmHg 27%
10:00 +26°C° 0 mm 6 mps 701 mmHg 20%
11:00 +27°C° 0 mm 7 mps 700 mmHg 18%
12:00 +28°C° 0 mm 8 mps 700 mmHg 15%
13:00 +31°C° 0 mm 9 mps 700 mmHg 13%
14:00 +29°C° 0 mm 10 mps 699 mmHg 14%
15:00 +28°C° 0 mm 10 mps 699 mmHg 15%
16:00 +28°C° 0 mm 11 mps 699 mmHg 16%
17:00 +26°C° 0 mm 10 mps 699 mmHg 20%
18:00 +23°C° 0 mm 10 mps 699 mmHg 23%
19:00 +21°C° 0 mm 9 mps 699 mmHg 27%
20:00 +20°C° 0 mm 8 mps 699 mmHg 29%
21:00 +18°C° 0 mm 8 mps 699 mmHg 32%
22:00 +17°C° 0 mm 7 mps 699 mmHg 34%
23:00 +16°C° 0 mm 7 mps 699 mmHg 37%
Show more